Terminal Aerodrome Forecast
Issued by NWS

Home | Current Version | Previous Version | Text Only | Print | Product List | Glossary On
Versions: 1 2 3 4 5 6 7 8 9 10 11 12 13 14 15 16 17 18 19 20 21 22 23 24 25
000
FTUS45 KREV 172300
TAFCXP
TAF
KCXP 172331Z 1800/1824 25015G25KT P6SM SCT100
     FM180400 24006KT P6SM FEW100
     FM181900 21008KT P6SM SCT100 SCT150
     FM182300 28012G22KT 6SM FU HZ SCT090 BKN140=

USA.gov is the U.S. government's official web portal to all federal, state and local government web resources and services.